Weather History for KLMT - April, 2013

Change the Weather History Date:

Monday, April 8, 2013

  Actual Average Record
Temperature  
Mean Temperature 37 °F 41 °F  
Max Temperature 46 °F 54 °F 73 °F (1996)
Min Temperature 28 °F 28 °F 17 °F (1991)
Degree Days  
Heating Degree Days 28 24  
Month to date heating degree days 164 196  
Since 1 July heating degree days 5606 5858  
Cooling Degree Days 0 0  
Month to date cooling degree days 0 0  
Year to date cooling degree days 0 0  
Moisture  
Dew Point 26 °F    
Average Humidity 70    
Maximum Humidity 78    
Minimum Humidity 49    
Precipitation  
Precipitation 0.00 in 0.04 in 0.34 in (1984)
Month to date precipitation 0.98 0.28  
Year to date precipitation 2.46 5.32  
Sea Level Pressure  
Sea Level Pressure 29.99 in    
Wind  
Wind Speed 14 mph (NNW)    
Max Wind Speed 25 mph    
Max Gust Speed 33 mph    
Visibility 9 miles    
Events Snow    
T = Trace of Precipitation, MM = Missing Value Source: NWS Daily Summary

Daily Weather History Graph

Daily Weather History Graph

Search for Another Location

Airport or City:

Trip Planner

Search our weather history database for the weather conditions in past years. The results will help you decide how hot, cold, wet, or windy it might be!

Date:

Astronomy

Apr. 08, 2013 Rise Set
Actual Time 6:37 AM PDT 7:40 PM PDT
Civil Twilight 6:08 AM PDT 8:09 PM PDT
Nautical Twilight 5:34 AM PDT 8:43 PM PDT
Astronomical Twilight 4:58 AM PDT 9:19 PM PDT
Moon 5:31 AM PDT (4/8) 6:19 PM PDT (4/8)
Length of Visible Light 14h 01m
Length of Day
13h 03m
Waning Crescent, 3% of the Moon is Illuminated
Apr 8
Waning Crescent
Apr 10
New
Apr 18
First Quarter
Apr 25
Full
May 2
Last Quarter

Hourly Weather History & Observations

Time (PDT) Temp. Windchill Dew Point Humidity Pressure Visibility Wind Dir Wind Speed Gust Speed Precip Events Conditions
12:02 AM 32.0 °F 19.8 °F 30.2 °F 93% 29.79 in 1.5 mi NNW 20.7 mph - 0.00 in Snow Light Snow
12:26 AM 32.0 °F 21.6 °F 30.2 °F 93% 29.81 in 3.0 mi NNW 15.0 mph - 0.00 in Snow Light Snow
12:34 AM 32.0 °F 22.5 °F 28.4 °F 87% 29.81 in 8.0 mi NNW 12.7 mph - 0.00 in Snow Light Snow
12:53 AM 32.0 °F 25.6 °F 28.9 °F 88% 29.82 in 10.0 mi North 6.9 mph - 0.00 in   Overcast
1:53 AM 32.0 °F 24.8 °F 26.1 °F 79% 29.85 in 10.0 mi North 8.1 mph - N/A   Overcast
2:08 AM 32.0 °F 26.4 °F 26.6 °F 80% 29.85 in 10.0 mi North 5.8 mph - N/A   Overcast
2:33 AM 30.2 °F 20.8 °F 26.6 °F 86% 29.86 in 10.0 mi North 11.5 mph 17.3 mph N/A   Overcast
2:53 AM 30.9 °F 21.2 °F 25.0 °F 79% 29.88 in 10.0 mi North 12.7 mph - N/A   Overcast
3:53 AM 30.0 °F 21.1 °F 23.0 °F 75% 29.93 in 10.0 mi North 10.4 mph - N/A   Scattered Clouds
4:53 AM 30.0 °F 21.1 °F 21.9 °F 72% 29.93 in 10.0 mi North 10.4 mph - N/A   Partly Cloudy
5:53 AM 28.9 °F 19.8 °F 21.0 °F 72% 29.95 in 10.0 mi North 10.4 mph - N/A   Clear
6:53 AM 28.9 °F 19.8 °F 21.9 °F 75% 30.00 in 10.0 mi NNW 10.4 mph - N/A   Clear
7:53 AM 30.9 °F 23.5 °F 24.1 °F 76% 30.02 in 10.0 mi North 8.1 mph - N/A   Clear
8:53 AM 33.1 °F 24.9 °F 25.0 °F 72% 30.02 in 10.0 mi NNW 10.4 mph - N/A   Clear
9:53 AM 35.1 °F 26.4 °F 26.1 °F 70% 30.03 in 10.0 mi NW 12.7 mph - N/A   Clear
10:53 AM 39.0 °F 29.0 °F 27.0 °F 62% 30.03 in 10.0 mi NW 20.7 mph - N/A   Clear
11:53 AM 39.9 °F 30.5 °F 26.1 °F 58% 30.05 in 10.0 mi NW 19.6 mph 26.5 mph N/A   Partly Cloudy
12:53 PM 43.0 °F 34.0 °F 28.0 °F 56% 30.03 in 10.0 mi NW 21.9 mph 27.6 mph N/A   Clear
1:53 PM 44.1 °F 35.4 °F 28.0 °F 53% 30.03 in 10.0 mi NW 21.9 mph 28.8 mph N/A   Clear
2:53 PM 43.0 °F 34.2 °F 26.1 °F 51% 30.04 in 10.0 mi NW 20.7 mph 26.5 mph N/A   Mostly Cloudy
3:53 PM 45.0 °F 36.6 °F 27.0 °F 49% 30.05 in 10.0 mi NW 21.9 mph 29.9 mph N/A   Scattered Clouds
4:53 PM 45.0 °F 37.1 °F 27.0 °F 49% 30.05 in 10.0 mi NNW 19.6 mph 28.8 mph N/A   Clear
5:53 PM 45.0 °F 36.6 °F 28.0 °F 52% 30.07 in 10.0 mi NW 21.9 mph 32.2 mph N/A   Partly Cloudy
6:53 PM 43.0 °F 33.8 °F 26.1 °F 51% 30.10 in 10.0 mi NW 23.0 mph 26.5 mph N/A   Clear
7:53 PM 39.9 °F 31.4 °F 27.0 °F 60% 30.13 in 10.0 mi NW 16.1 mph - N/A   Clear
8:53 PM 37.9 °F 29.6 °F 28.0 °F 68% 30.15 in 10.0 mi NW 13.8 mph - N/A   Clear
9:53 PM 35.1 °F 27.9 °F 27.0 °F 72% 30.18 in 10.0 mi NNW 9.2 mph - N/A   Clear
10:53 PM 35.1 °F 26.9 °F 26.1 °F 70% 30.18 in 10.0 mi NNW 11.5 mph - N/A   Clear
11:53 PM 34.0 °F 29.8 °F 25.0 °F 70% 30.20 in 10.0 mi NNE 4.6 mph - N/A   Clear